FW0960 Weather Reports


time (UTC)temp
C
wind
direction
speed
KPH
gust
KPH
rain 1hr
cm
rain 24hr
cm
rain mn
cm
humidity
%
barometer
mb
20260901012729 24 269 0.0 0.0 0.00 0.00 0.00 95 1019.0
20260901012228 24 269 0.0 0.0 0.00 0.00 0.00 95 1018.9
20260901011220 24 269 0.0 0.0 0.00 0.00 0.00 95 1018.9
20260901010724 24 269 0.0 0.0 0.00 0.00 0.00 95 1018.9
20260901010218 24 269 0.0 0.0 0.00 0.00 0.00 95 1018.8
20260901005216 24 269 0.0 0.0 0.00 0.00 0.00 94 1018.8
20260901004710 24 269 0.0 1.6 0.00 0.00 0.00 94 1018.8
20260901004209 24 269 0.0 1.6 0.00 0.00 0.00 94 1018.8
20260901003709 24 269 0.0 1.6 0.00 0.00 0.00 94 1018.7
20260901003208 24 269 0.0 1.6 0.00 0.00 0.00 94 1018.6
20260901002706 24 269 0.0 0.0 0.00 0.00 0.00 94 1018.5
20260901002204 24 269 0.0 0.0 0.00 0.00 0.00 94 1018.4
20260901001707 24 269 0.0 0.0 0.00 0.00 0.00 94 1018.5
20260901001221 24 269 0.0 0.0 0.00 0.00 0.00 93 1018.6
20260901000205 24 269 0.0 0.0 0.00 0.00 0.00 93 1018.6
20260831235701 24 269 0.0 0.0 0.00 0.00 0.00 93 1018.6
20260831235203 24 269 0.0 1.6 0.00 0.00 0.00 93 1018.6
20260831234708 24 269 0.0 1.6 0.00 0.00 0.00 93 1018.7
20260831234158 24 269 0.0 0.0 0.00 0.00 0.00 93 1018.7
20260831233654 24 269 0.0 0.0 0.00 0.00 0.00 93 1018.7
20260831233152 24 269 0.0 0.0 0.00 0.00 0.00 92 1018.8
20260831232654 24 269 0.0 0.0 0.00 0.00 0.00 92 1018.7
20260831232154 24 269 0.0 0.0 0.00 0.00 0.00 92 1018.9
20260831231646 24 269 0.0 0.0 0.00 0.00 0.00 92 1018.9
20260831231148 25 269 0.0 0.0 0.00 0.00 0.00 92 1019.0
20260831230147 25 269 0.0 0.0 0.00 0.00 0.00 92 1019.0
20260831225146 25 269 0.0 0.0 0.00 0.00 0.00 91 1019.1
20260831224639 25 269 0.0 0.0 0.00 0.00 0.00 91 1019.0
20260831223636 25 269 0.0 0.0 0.00 0.00 0.00 91 1019.0
20260831223133 25 269 0.0 0.0 0.00 0.00 0.00 91 1019.3
20260831222635 25 269 0.0 0.0 0.00 0.00 0.00 91 1019.4
20260831222134 25 269 0.0 0.0 0.00 0.00 0.00 91 1019.2
20260831221632 25 269 0.0 0.0 0.00 0.00 0.00 91 1019.4
20260831220640 25 269 0.0 1.6 0.00 0.00 0.00 90 1019.5
20260831220132 25 269 0.0 1.6 0.00 0.00 0.00 90 1019.5
20260831215126 25 269 0.0 1.6 0.00 0.00 0.00 90 1019.8
20260831214633 25 269 0.0 1.6 0.00 0.00 0.00 90 1019.8
20260831214123 25 269 0.0 1.6 0.00 0.00 0.00 89 1019.9
20260831213623 25 269 0.0 1.6 0.00 0.00 0.00 90 1019.9
20260831213119 25 269 0.0 1.6 0.00 0.00 0.00 90 1019.8
20260831212620 25 269 0.0 1.6 0.00 0.00 0.00 90 1019.6
20260831212121 25 269 0.0 3.2 0.00 0.00 0.00 90 1019.5
20260831211619 25 269 0.0 3.2 0.00 0.00 0.00 90 1019.5
20260831211120 25 271 0.0 1.6 0.00 0.00 0.00 91 1019.4
20260831205108 25 271 0.0 1.6 0.00 0.00 0.00 91 1019.6
20260831204605 25 271 0.0 1.6 0.00 0.00 0.00 90 1019.5
20260831204141 25 271 0.0 1.6 0.00 0.00 0.00 91 1019.2
20260831203606 25 271 0.0 1.6 0.00 0.00 0.00 90 1019.1
20260831203108 25 271 0.0 1.6 0.00 0.00 0.00 90 1019.0
20260831202650 25 271 0.0 1.6 0.00 0.00 0.00 90 1019.0
20260831202105 25 271 0.0 1.6 0.00 0.00 0.00 90 1019.1
20260831201110 25 269 1.6 1.6 0.00 0.00 0.00 90 1019.0
20260831195604 26 256 0.0 3.2 0.00 0.00 0.00 89 1019.2
20260831195113 26 250 0.0 1.6 0.00 0.00 0.00 90 1019.3
20260831194559 26 250 0.0 1.6 0.00 0.00 0.00 90 1019.2
20260831194100 26 250 1.6 3.2 0.00 0.00 0.00 89 1019.2
20260831193558 26 250 0.0 3.2 0.00 0.00 0.00 88 1019.2
20260831193055 26 250 0.0 3.2 0.00 0.00 0.00 90 1019.1
20260831192555 26 250 0.0 3.2 0.00 0.00 0.00 88 1019.1
20260831192056 26 250 1.6 3.2 0.00 0.00 0.00 89 1019.2
20260831191050 26 248 0.0 3.2 0.00 0.00 0.00 90 1019.2
20260831190549 26 248 1.6 3.2 0.00 0.00 0.00 89 1019.3
20260831190050 26 245 0.0 3.2 0.00 0.00 0.00 89 1019.3
20260831185544 26 240 1.6 3.2 0.00 0.00 0.00 89 1019.5
20260831185041 26 243 0.0 3.2 0.00 0.00 0.00 90 1019.4
20260831184539 26 234 0.0 3.2 0.00 0.00 0.00 89 1019.3
20260831184208 26 234 0.0 3.2 0.00 0.00 0.00 89 1019.6
20260831183036 26 229 0.0 3.2 0.00 0.00 0.00 89 1019.4
20260831182538 26 229 0.0 3.2 0.00 0.00 0.00 89 1019.4
20260831182034 26 229 1.6 3.2 0.00 0.00 0.00 89 1019.2
20260831181538 26 230 0.0 3.2 0.00 0.00 0.00 90 1019.3
20260831180538 26 230 0.0 3.2 0.00 0.00 0.00 90 1019.4
20260831175034 26 230 0.0 3.2 0.00 0.00 0.00 90 1019.6
20260831174534 26 229 0.0 1.6 0.00 0.00 0.00 89 1019.6
20260831174033 26 230 0.0 3.2 0.00 0.00 0.00 89 1019.6
20260831173535 26 230 1.6 3.2 0.00 0.00 0.00 89 1019.6
20260831173033 26 229 1.6 3.2 0.00 0.00 0.00 89 1019.6
20260831172531 26 229 0.0 3.2 0.00 0.00 0.00 89 1019.5
20260831172034 27 229 0.0 3.2 0.00 0.00 0.00 90 1019.6
20260831171533 26 229 0.0 0.0 0.00 0.00 0.00 90 1019.6
20260831171032 26 230 0.0 0.0 0.00 0.00 0.00 89 1019.6
20260831170039 26 230 0.0 0.0 0.00 0.00 0.00 90 1019.7
20260831165532 26 229 0.0 1.6 0.00 0.00 0.00 90 1019.7
20260831165033 26 230 0.0 1.6 0.00 0.00 0.00 90 1019.8
20260831164036 26 229 0.0 3.2 0.00 0.00 0.00 90 1019.7
20260831163533 26 175 0.0 0.0 0.00 0.00 0.00 90 1019.8
20260831163036 26 175 0.0 0.0 0.00 0.00 0.00 91 1019.9
20260831162535 26 175 0.0 0.0 0.00 0.00 0.00 90 1020.1
20260831162037 26 175 0.0 0.0 0.00 0.00 0.00 90 1020.1
20260831161038 25 175 0.0 0.0 0.00 0.00 0.00 90 1020.2
20260831160531 25 175 0.0 0.0 0.00 0.00 0.00 91 1020.0
20260831155032 25 175 0.0 0.0 0.00 0.00 0.00 91 1020.1
20260831154034 25 175 0.0 0.0 0.00 0.00 0.00 93 1020.1
20260831153532 25 175 0.0 0.0 0.00 0.00 0.00 94 1020.2
20260831153035 25 175 0.0 0.0 0.00 0.00 0.00 92 1020.3
20260831152532 25 175 0.0 0.0 0.00 0.00 0.00 93 1020.3
20260831152033 25 175 0.0 0.0 0.00 0.00 0.00 94 1020.3
20260831151531 25 175 0.0 0.0 0.00 0.00 0.00 94 1020.2
20260831151032 24 175 0.0 0.0 0.00 0.00 0.00 95 1020.3
20260831150532 24 175 0.0 0.0 0.00 0.00 0.00 94 1020.3
20260831150034 24 175 0.0 0.0 0.00 0.00 0.00 95 1020.2
20260831143033 24 175 0.0 1.6 0.00 0.00 0.00 97 1020.1
20260831142030 23 175 0.0 0.0 0.00 0.00 0.00 98 1020.1
20260831140534 23 175 0.0 1.6 0.00 0.00 0.00 100 1020.3
20260831140030 23 175 0.0 0.0 0.00 0.00 0.00 100 1020.2
20260831135529 23 175 0.0 1.6 0.00 0.00 0.00 100 1020.3
20260831135031 23 175 0.0 1.6 0.00 0.00 0.00 100 1020.4
20260831134531 23 175 0.0 1.6 0.00 0.00 0.00 100 1020.2
20260831134030 23 175 0.0 1.6 0.00 0.00 0.00 100 1020.3
20260831133523 23 175 0.0 1.6 0.00 0.00 0.00 100 1020.2
20260831132509 23 175 0.0 1.6 0.00 0.00 0.00 100 1020.1
20260831132006 23 175 0.0 3.2 0.00 0.00 0.00 100 1020.0
20260831131501 23 175 0.0 3.2 0.00 0.00 0.00 100 1020.2
20260831130503 24 175 0.0 1.6 0.00 0.00 0.00 100 1020.2
20260831130009 24 175 0.0 1.6 0.00 0.00 0.00 100 1020.3
20260831125504 24 175 0.0 1.6 0.00 0.00 0.00 100 1020.2
20260831125004 24 175 0.0 0.0 0.00 0.00 0.00 100 1020.1
20260831124504 24 175 0.0 0.0 0.00 0.00 0.00 100 1020.0
20260831124005 23 175 0.0 0.0 0.00 0.00 0.00 100 1020.0
20260831123003 23 175 0.0 0.0 0.00 0.00 0.00 100 1019.9
20260831122501 23 175 0.0 0.0 0.00 0.00 0.00 100 1019.9
20260831121004 23 175 0.0 0.0 0.00 0.00 0.00 100 1019.7
20260831115509 23 175 0.0 0.0 0.00 0.00 0.00 100 1019.8
20260831115003 23 175 0.0 0.0 0.00 0.00 0.00 100 1019.9
20260831114456 23 175 0.0 0.0 0.00 0.00 0.00 100 1019.8
20260831111930 23 175 0.0 0.0 0.00 0.00 0.00 100 1019.7
20260831110925 23 175 0.0 0.0 0.00 0.00 0.00 100 1019.5
20260831110432 23 175 0.0 0.0 0.00 0.00 0.00 100 1019.5
20260831105926 23 175 0.0 0.0 0.00 0.00 0.00 100 1019.5
20260831105426 22 175 0.0 0.0 0.00 0.00 0.00 100 1019.5
20260831104927 22 175 0.0 0.0 0.00 0.00 0.00 100 1019.4
20260831104426 22 175 0.0 0.0 0.00 0.00 0.00 100 1019.2
20260831103922 22 175 0.0 0.0 0.00 0.00 0.00 100 1019.1
20260831103419 22 175 0.0 0.0 0.00 0.00 0.00 100 1019.2
20260831102919 22 175 0.0 0.0 0.00 0.00 0.00 100 1019.0
20260831101919 22 175 0.0 0.0 0.00 0.00 0.00 100 1018.8
20260831101416 22 175 0.0 0.0 0.00 0.00 0.00 100 1018.8
20260831100916 23 175 0.0 0.0 0.00 0.00 0.00 100 1018.8
20260831100412 23 175 0.0 0.0 0.00 0.00 0.00 100 1018.7
20260831095910 23 175 0.0 0.0 0.00 0.00 0.00 100 1018.7
20260831095409 23 175 0.0 0.0 0.00 0.00 0.00 100 1018.7
20260831094908 23 175 0.0 0.0 0.00 0.00 0.00 100 1018.7
20260831094408 23 175 0.0 0.0 0.00 0.00 0.00 100 1018.7
20260831093904 23 175 0.0 0.0 0.00 0.00 0.00 100 1018.7
20260831093356 23 175 0.0 0.0 0.00 0.00 0.00 100 1018.7
20260831092854 23 175 0.0 0.0 0.00 0.00 0.00 100 1018.8
20260831091843 23 175 0.0 1.6 0.00 0.00 0.00 100 1018.7
20260831091335 23 175 0.0 1.6 0.00 0.00 0.00 100 1018.7
20260831090828 23 175 0.0 0.0 0.00 0.00 0.00 100 1018.7
20260831090331 23 175 0.0 0.0 0.00 0.00 0.00 100 1018.6
20260831085828 23 175 0.0 0.0 0.00 0.00 0.00 100 1018.6
20260831085332 23 175 0.0 0.0 0.00 0.00 0.00 100 1018.6
20260831084829 23 175 0.0 0.0 0.00 0.00 0.00 100 1018.5
20260831084332 23 175 0.0 0.0 0.00 0.00 0.00 100 1018.5
20260831083830 23 175 0.0 0.0 0.00 0.00 0.00 100 1018.5
20260831083334 23 175 0.0 1.6 0.00 0.00 0.00 100 1018.5
20260831082832 23 175 0.0 1.6 0.00 0.00 0.00 100 1018.6
20260831082329 23 175 0.0 1.6 0.00 0.00 0.00 100 1018.7
20260831080834 23 175 0.0 1.6 0.00 0.00 0.00 100 1018.7
20260831080332 22 175 0.0 1.6 0.00 0.00 0.00 100 1018.6
20260831075335 23 175 0.0 3.2 0.00 0.00 0.00 98 1018.6
20260831074333 23 250 0.0 1.6 0.00 0.00 0.00 98 1018.6
20260831073331 23 250 0.0 1.6 0.00 0.00 0.00 98 1018.7
20260831072834 23 250 0.0 1.6 0.00 0.00 0.00 98 1018.8
20260831071831 23 250 0.0 0.0 0.00 0.00 0.00 97 1018.9
20260831071329 23 250 0.0 0.0 0.00 0.00 0.00 97 1018.8
20260831070834 23 250 0.0 1.6 0.00 0.00 0.00 97 1018.9
20260831065831 23 250 0.0 0.0 0.00 0.00 0.00 97 1018.9
20260831064829 23 250 0.0 0.0 0.00 0.00 0.00 97 1019.0
20260831064332 23 250 0.0 0.0 0.00 0.00 0.00 97 1019.1
20260831063836 23 250 0.0 0.0 0.00 0.00 0.00 97 1019.0
20260831063334 23 250 0.0 1.6 0.00 0.00 0.00 97 1019.1
20260831062333 23 250 0.0 0.0 0.00 0.00 0.00 97 1019.0
20260831061329 23 250 0.0 1.6 0.00 0.00 0.00 97 1019.1
20260831060828 23 250 0.0 1.6 0.00 0.00 0.00 97 1019.1
20260831060331 23 250 0.0 1.6 0.00 0.00 0.00 97 1019.1
20260831055832 23 250 0.0 1.6 0.00 0.00 0.00 97 1019.1
20260831055333 23 250 0.0 0.0 0.00 0.00 0.00 96 1019.0
20260831054835 23 250 0.0 1.6 0.00 0.00 0.00 96 1019.1
20260831054332 23 250 0.0 3.2 0.00 0.00 0.00 96 1019.0
20260831053829 23 250 0.0 3.2 0.00 0.00 0.00 96 1019.0
20260831053330 23 250 0.0 0.0 0.00 0.00 0.00 96 1019.0
20260831052830 23 250 0.0 0.0 0.00 0.00 0.00 96 1019.1
20260831051835 23 250 0.0 1.6 0.00 0.00 0.00 96 1019.2
20260831051332 23 250 0.0 1.6 0.00 0.00 0.00 96 1019.0
20260831050830 23 250 0.0 4.8 0.00 0.00 0.00 96 1019.0
20260831050333 23 250 0.0 4.8 0.00 0.00 0.00 96 1019.1
20260831045330 23 250 0.0 4.8 0.00 0.00 0.00 96 1019.1
20260831044829 23 250 0.0 4.8 0.00 0.00 0.00 96 1019.2
20260831044332 23 250 0.0 0.0 0.00 0.00 0.00 96 1019.2
20260831043831 23 250 0.0 1.6 0.00 0.00 0.00 96 1019.3
20260831043329 23 250 0.0 1.6 0.00 0.00 0.00 96 1019.4
20260831042833 23 250 0.0 1.6 0.00 0.00 0.00 96 1019.2
20260831042331 23 250 0.0 1.6 0.00 0.00 0.00 96 1019.3
20260831041829 23 250 0.0 1.6 0.00 0.00 0.00 96 1019.3
20260831041330 23 250 0.0 0.0 0.00 0.00 0.00 95 1019.4
20260831040834 23 250 0.0 0.0 0.00 0.00 0.00 95 1019.3
20260831040331 23 250 0.0 4.8 0.00 0.00 0.00 95 1019.4
20260831035833 23 250 0.0 4.8 0.00 0.00 0.00 95 1019.3
20260831035334 23 250 0.0 3.2 0.00 0.00 0.00 95 1019.4
20260831034837 23 250 0.0 3.2 0.00 0.00 0.00 95 1019.4
20260831034339 23 250 0.0 3.2 0.00 0.00 0.00 95 1019.3
20260831033832 23 250 0.0 1.6 0.00 0.00 0.00 95 1019.5
20260831032838 23 250 0.0 1.6 0.00 0.00 0.00 95 1019.5
20260831032331 23 250 0.0 1.6 0.00 0.00 0.00 95 1019.5
20260831031332 23 250 0.0 1.6 0.00 0.00 0.00 94 1019.5
20260831030332 24 250 0.0 1.6 0.00 0.00 0.00 94 1019.7
20260831025331 24 250 0.0 0.0 0.00 0.00 0.00 94 1019.9
20260831024832 24 250 0.0 1.6 0.00 0.00 0.00 94 1020.0
20260831024332 24 250 0.0 1.6 0.00 0.00 0.00 94 1020.0
20260831023330 24 250 0.0 1.6 0.00 0.00 0.00 94 1019.9
20260831022839 24 250 0.0 1.6 0.00 0.00 0.00 94 1020.0
20260831022334 24 250 0.0 0.0 0.00 0.00 0.00 94 1020.0
20260831021332 24 250 0.0 1.6 0.00 0.00 0.00 93 1019.9
20260831020839 24 250 0.0 1.6 0.00 0.00 0.00 93 1019.9
20260831015833 24 250 0.0 0.0 0.00 0.00 0.00 93 1020.0
20260831014833 24 250 0.0 0.0 0.00 0.00 0.00 93 1020.1
20260831014334 24 250 0.0 0.0 0.00 0.00 0.00 92 1020.2
20260831013833 24 250 0.0 1.6 0.00 0.00 0.00 92 1020.2
20260831013334 25 250 0.0 1.6 0.00 0.00 0.00 92 1020.2